FW4154 Weather Reports


Display with metric or nautical units.
time (UTC)temp
F
wind
direction
speed
MPH
gust
MPH
rain 1hr
in
rain 24hr
in
rain mn
in
humidity
%
barometer
mb
20260510055342 56 360 0.0 2.0 0.00 0.00 0.00 86 1000.2
20260510054839 56 360 1.0 2.0 0.00 0.00 0.00 86 1000.2
20260510053842 57 360 0.0 1.0 0.00 0.00 0.00 86 1000.2
20260510052849 57 360 0.0 2.0 0.00 0.00 0.00 85 1000.2
20260510051852 57 360 0.0 2.0 0.00 0.00 0.00 85 1000.2
20260510050848 57 360 0.0 2.0 0.00 0.00 0.00 84 1000.2
20260510050345 57 360 0.0 1.0 0.00 0.00 0.00 84 1000.2
20260510045844 58 360 0.0 2.0 0.00 0.00 0.00 83 1000.2
20260510044848 58 360 1.0 3.0 0.00 0.00 0.00 83 1000.2
20260510044338 58 360 1.0 3.0 0.00 0.00 0.00 82 1000.2
20260510043342 58 360 1.0 2.0 0.00 0.00 0.00 83 1000.2
20260510042341 59 360 1.0 2.0 0.00 0.00 0.00 82 1000.2
20260510041338 60 360 0.0 2.0 0.00 0.00 0.00 82 1000.2
20260510040831 60 360 0.0 2.0 0.00 0.00 0.00 80 1000.2
20260510040327 60 360 0.0 3.0 0.00 0.00 0.00 79 1000.2
20260510035334 61 360 1.0 2.0 0.00 0.00 0.00 79 1000.2
20260510034829 61 360 1.0 2.0 0.00 0.00 0.00 78 1000.2
20260510033338 62 360 0.0 0.0 0.00 0.00 0.00 75 1000.2
20260510032345 62 360 0.0 2.0 0.00 0.00 0.00 74 1000.2
20260510031843 62 360 0.0 2.0 0.00 0.00 0.00 74 1000.2
20260510031343 62 360 0.0 2.0 0.00 0.00 0.00 74 1000.2
20260510030340 63 316 1.0 3.0 0.00 0.00 0.00 72 1000.2
20260510025340 63 296 0.0 3.0 0.00 0.00 0.00 71 1000.2
20260510024829 64 301 0.0 3.0 0.00 0.00 0.00 70 1000.2
20260510023832 64 308 0.0 4.0 0.00 0.00 0.00 69 1000.2
20260510022858 64 321 1.0 7.0 0.00 0.00 0.00 70 1000.2
20260510021832 65 309 3.0 7.0 0.00 0.00 0.00 69 1000.2
20260510020829 65 313 2.0 8.0 0.00 0.00 0.00 68 1000.2
20260510020328 65 288 3.0 8.0 0.00 0.00 0.00 68 1000.2
20260510015340 65 319 4.0 9.0 0.00 0.00 0.00 67 1000.2
20260510014842 65 281 2.0 9.0 0.00 0.00 0.00 67 1000.2
20260510013845 66 322 2.0 8.0 0.00 0.00 0.00 67 1000.2
20260510013338 66 296 4.0 8.0 0.00 0.00 0.00 67 1000.2
20260510012835 66 294 4.0 10.0 0.00 0.00 0.00 66 1000.2
20260510012333 66 294 5.0 10.0 0.00 0.00 0.00 66 1000.2
20260510011342 66 259 5.0 11.0 0.00 0.00 0.00 68 1000.2
20260510010341 66 259 4.0 10.0 0.00 0.00 0.00 68 1000.2
20260510005342 66 291 4.0 9.0 0.00 0.00 0.00 67 1000.2
20260510004837 66 262 5.0 8.0 0.00 0.00 0.00 66 1000.2
20260510003841 67 276 4.0 7.0 0.00 0.00 0.00 64 1000.2
20260510002844 67 273 3.0 7.0 0.00 0.00 0.00 62 1000.2
20260510002329 67 286 4.0 7.0 0.00 0.00 0.00 62 1000.2
20260510001336 67 302 3.0 6.0 0.00 0.00 0.00 62 1000.2
20260510000345 67 283 5.0 9.0 0.00 0.00 0.00 62 1000.2
20260509235342 67 259 4.0 8.0 0.00 0.00 0.00 62 1000.2
20260509234340 67 277 4.0 7.0 0.00 0.00 0.00 61 1000.2
20260509233335 67 274 3.0 9.0 0.00 0.00 0.00 63 1000.2
20260509232337 67 251 2.0 9.0 0.00 0.00 0.00 62 1000.2
20260509231832 67 310 4.0 10.0 0.00 0.00 0.00 61 1000.2
20260509230835 67 340 5.0 9.0 0.00 0.00 0.00 63 1000.2
20260509225843 67 275 3.0 10.0 0.00 0.00 0.00 62 1000.2
20260509225340 67 275 2.0 10.0 0.00 0.00 0.00 64 1000.2
20260509224835 67 325 4.0 10.0 0.00 0.00 0.00 64 1000.2
20260509223840 66 309 5.0 12.0 0.00 0.00 0.00 65 1000.2
20260509223333 67 267 8.0 13.0 0.00 0.00 0.00 62 1000.2
20260509222332 67 302 6.0 11.0 0.00 0.00 0.00 61 1000.2
20260509221335 67 309 5.0 10.0 0.00 0.00 0.00 60 1000.2
20260509220347 67 327 8.0 13.0 0.00 0.00 0.00 59 1000.2
20260509215343 67 317 5.0 11.0 0.00 0.00 0.00 60 1000.2
20260509214835 67 279 4.0 10.0 0.00 0.00 0.00 61 1000.2
20260509214324 67 330 7.0 10.0 0.00 0.00 0.00 60 1000.2
20260509213341 68 329 6.0 11.0 0.00 0.00 0.00 60 1000.2
20260509212826 68 281 3.0 9.0 0.00 0.00 0.00 62 1000.2
20260509211839 68 304 3.0 10.0 0.00 0.00 0.00 62 1000.2
20260509211337 67 281 4.0 16.0 0.00 0.00 0.00 63 1000.2
20260509210341 67 258 3.0 11.0 0.00 0.00 0.00 66 1000.2
20260509205837 67 209 5.0 11.0 0.00 0.00 0.00 66 1000.2
20260509204839 66 234 3.0 7.0 0.00 0.00 0.00 67 1000.2
20260509204336 66 323 3.0 9.0 0.00 0.00 0.00 66 1000.2
20260509203344 65 216 4.0 6.0 0.00 0.00 0.00 71 1000.2
20260509202338 65 227 3.0 9.0 0.00 0.00 0.00 68 1000.2
20260509201830 64 163 5.0 9.0 0.00 0.00 0.00 72 1000.2
20260509201327 64 163 4.0 7.0 0.00 0.00 0.00 73 1000.2
20260509200333 64 202 1.0 7.0 0.00 0.00 0.00 72 1000.2
20260509194850 64 285 4.0 7.0 0.00 0.00 0.00 73 1000.2
20260509194345 64 172 4.0 6.0 0.00 0.00 0.00 75 1000.2
20260509193843 64 169 2.0 7.0 0.00 0.00 0.00 71 1000.2
20260509192843 64 270 3.0 8.0 0.00 0.00 0.00 70 1000.2
20260509192342 63 222 5.0 9.0 0.00 0.00 0.00 77 1000.2
20260509191341 63 174 5.0 6.0 0.00 0.00 0.00 74 1000.2
20260509190345 62 184 4.0 6.0 0.00 0.00 0.00 74 1000.2
20260509185842 62 158 2.0 7.0 0.00 0.00 0.00 74 1000.2
20260509185341 62 157 4.0 7.0 0.00 0.00 0.00 76 1000.2
20260509184835 61 157 4.0 7.0 0.00 0.00 0.00 78 1000.2
20260509183841 61 148 3.0 7.0 0.00 0.00 0.00 75 1000.2
20260509183335 61 148 4.0 7.0 0.00 0.00 0.00 74 1000.2
20260509182334 61 178 5.0 6.0 0.00 0.00 0.00 75 1000.2
20260509181335 61 149 2.0 3.0 0.00 0.00 0.00 74 1000.2
20260509180831 61 149 1.0 2.0 0.00 0.00 0.00 75 1000.2
20260509175841 60 149 1.0 3.0 0.00 0.00 0.00 76 1000.2
20260509174839 60 149 3.0 6.0 0.00 0.00 0.00 79 1000.2
20260509174332 59 150 4.0 7.0 0.00 0.00 0.00 79 1000.2
20260509173833 59 150 4.0 7.0 0.00 0.00 0.00 82 1000.2
20260509172848 58 165 5.0 7.0 0.00 0.00 0.00 84 1000.2
20260509171843 58 166 5.0 6.0 0.00 0.00 0.00 85 1000.2
20260509170841 57 165 4.0 6.0 0.00 0.00 0.00 85 1000.2
20260509165841 57 164 5.0 6.0 0.00 0.00 0.00 87 1000.2
20260509165331 57 164 4.0 6.0 0.00 0.00 0.00 88 1000.2
20260509163831 56 171 4.0 5.0 0.00 0.00 0.00 85 1000.2
20260509162856 56 177 2.0 4.0 0.00 0.00 0.00 85 1000.2
20260509162341 56 177 2.0 4.0 0.00 0.00 0.00 86 1000.2
20260509161837 56 177 2.0 4.0 0.00 0.00 0.00 88 1000.2
20260509160839 55 175 3.0 5.0 0.00 0.00 0.00 89 1000.2
20260509160330 55 175 4.0 6.0 0.00 0.00 0.00 89 1000.2
20260509155342 55 160 3.0 6.0 0.00 0.00 0.00 88 1000.2
20260509154332 56 44 1.0 4.0 0.00 0.00 0.00 83 1000.2
20260509153338 55 46 2.0 3.0 0.00 0.00 0.00 85 1000.2
20260509151833 54 69 1.0 2.0 0.00 0.00 0.00 87 1000.2
20260509150831 53 69 0.0 3.0 0.00 0.00 0.00 87 1000.2
20260509145844 52 69 0.0 3.0 0.00 0.00 0.00 89 1000.2
20260509145327 52 360 1.0 3.0 0.00 0.00 0.00 90 1000.2
20260509144342 51 360 2.0 4.0 0.00 0.00 0.00 90 1000.2
20260509143346 50 360 2.0 5.0 0.00 0.00 0.00 92 1000.2
20260509142832 50 360 2.0 5.0 0.00 0.00 0.00 92 1000.2
20260509142331 49 360 2.0 4.0 0.00 0.00 0.00 92 1000.2
20260509141349 49 360 3.0 5.0 0.00 0.00 0.00 93 1000.2
20260509140345 48 360 3.0 5.0 0.00 0.00 0.00 93 1000.2
20260509135837 48 360 3.0 5.0 0.00 0.00 0.00 93 1000.2
20260509134841 47 360 2.0 4.0 0.00 0.00 0.00 94 1000.2
20260509134323 47 360 2.0 3.0 0.00 0.00 0.00 94 1000.2
20260509133333 46 360 0.0 0.0 0.00 0.00 0.00 94 1000.2
20260509132343 46 360 0.0 0.0 0.00 0.00 0.00 95 1000.2
20260509131343 46 360 0.0 2.0 0.00 0.00 0.00 94 1000.2
20260509130833 46 360 0.0 2.0 0.00 0.00 0.00 94 1000.2
20260509125828 45 360 1.0 4.0 0.00 0.00 0.00 94 1000.2
20260509124835 45 360 1.0 4.0 0.00 0.00 0.00 94 1000.2
20260509123836 46 360 2.0 4.0 0.00 0.00 0.00 94 1000.2
20260509122837 46 360 2.0 4.0 0.00 0.00 0.00 94 1000.2
20260509121844 46 360 1.0 4.0 0.00 0.00 0.00 94 1000.2
20260509121334 46 360 1.0 3.0 0.00 0.00 0.00 94 1000.2
20260509120833 46 360 0.0 3.0 0.00 0.00 0.00 93 1000.2
20260509120332 46 360 1.0 2.0 0.00 0.00 0.00 93 1000.2
20260509115826 47 360 1.0 2.0 0.00 0.00 0.00 93 1000.2
20260509114837 47 360 1.0 2.0 0.00 0.00 0.00 94 1000.2
20260509113845 47 360 1.0 3.0 0.00 0.00 0.00 94 1000.2
20260509113341 47 360 1.0 4.0 0.00 0.00 0.00 94 1000.2
20260509112826 47 360 3.0 4.0 0.00 0.00 0.00 94 1000.2
20260509111828 47 360 2.0 4.0 0.00 0.00 0.00 94 1000.2
20260509110836 47 360 0.0 0.0 0.00 0.00 0.00 94 1000.2
20260509105848 47 360 0.0 0.0 0.00 0.00 0.00 94 1000.2
20260509105331 47 360 0.0 0.0 0.00 0.00 0.00 94 1000.2
20260509104340 47 360 0.0 0.0 0.00 0.00 0.00 94 1000.2
20260509103335 47 360 0.0 0.0 0.00 0.00 0.00 93 1000.2
20260509101334 48 360 1.0 2.0 0.00 0.00 0.00 93 1000.2
20260509100334 48 360 0.0 2.0 0.00 0.00 0.00 93 1000.2
20260509095345 48 360 1.0 3.0 0.00 0.00 0.00 93 1000.2
20260509094839 48 360 1.0 3.0 0.00 0.00 0.00 93 1000.2
20260509093842 48 360 0.0 3.0 0.00 0.00 0.00 93 1000.2
20260509092833 48 360 0.0 2.0 0.00 0.00 0.00 92 1000.2
20260509091846 49 360 0.0 2.0 0.00 0.00 0.00 92 1000.2
20260509091338 49 360 1.0 2.0 0.00 0.00 0.00 92 1000.2
20260509090338 49 360 0.0 2.0 0.00 0.00 0.00 92 1000.2
20260509085348 49 360 0.0 3.0 0.00 0.00 0.00 92 1000.2
20260509084829 49 360 1.0 3.0 0.00 0.00 0.00 91 1000.2
20260509083830 49 360 1.0 3.0 0.00 0.00 0.00 92 1000.2
20260509082849 49 360 0.0 2.0 0.00 0.00 0.00 92 1000.2
20260509082345 49 360 0.0 2.0 0.00 0.00 0.00 92 1000.2
20260509081341 49 360 0.0 2.0 0.00 0.00 0.00 92 1000.2
20260509080823 49 360 1.0 2.0 0.00 0.00 0.00 92 1000.2
20260509075831 49 360 0.0 2.0 0.00 0.00 0.00 91 1000.2
20260509075328 50 360 1.0 2.0 0.00 0.00 0.00 91 1000.2
20260509074345 50 360 1.0 2.0 0.00 0.00 0.00 91 1000.2
20260509073838 50 360 0.0 1.0 0.00 0.00 0.00 90 1000.2
20260509072844 50 360 0.0 2.0 0.00 0.00 0.00 90 1000.2
20260509072336 50 360 0.0 2.0 0.00 0.00 0.00 90 1000.2
20260509071349 50 360 0.0 1.0 0.00 0.00 0.00 89 1000.2
20260509070355 51 360 0.0 2.0 0.00 0.00 0.00 89 1000.2
20260509064832 51 360 0.0 0.0 0.00 0.00 0.00 89 1000.2
20260509064326 51 360 0.0 0.0 0.00 0.00 0.00 89 1000.2
20260509063344 52 360 0.0 2.0 0.00 0.00 0.00 88 1000.2
20260509062829 52 360 1.0 2.0 0.00 0.00 0.00 87 1000.2
20260509061845 53 360 0.0 3.0 0.00 0.00 0.00 87 1000.2
20260509061344 53 360 2.0 3.0 0.00 0.00 0.00 87 1000.2
20260509060603 52 360 0.0 1.0 0.00 0.00 0.00 85 1000.2